www.pogodaiklimat.ru

Погода и климат >> Архив погоды >> Аргентина >> La Plata


ПОГОДА в La Plata

  • Прогноз погоды в La Plata
  • Монитор погоды в La Plata
  • Климат города

АРХИВ ПОГОДЫ в La Plata

Время (UTC), дата Ветер
(напр.,м/с)
 
Видим.   Явления Облачность Т
(С)
Тd
(С)
f
(%)
Тe
(С)
Тes
(С)
Комфортность P
(гПа)
Po
(гПа)
Тmin
(С)
Tmax
(С)
R
(мм)
R24
(мм)
S
(см)
03 10.12 Ю 7 10 км 4/0
[Ac trans Ci fib]
+19.0 +14.0 73 +20 +20 1007.3 1004.6
06 10.12 Ю 5 10 км ясно +14.6 +12.6 88 +13 +13 1007.4 1004.6
09 10.12 штиль 0 10 км 6/0
[Cs]
+11.4 +11.2 99 +11 +11 1007.9 1005.2
12 10.12 СВ 2 10 км 3/0
[Ci fib]
+19.5 +13.6 69 +22 +31 комфорт 1007.1 1004.4 +11.1 +24.4
15 10.12 З 3 10 км ясно +26.7 +11.5 39 +28 +45 жарко 1006.5 1003.8
18 10.12 З 6 10 км ясно +28.4 +9.9 32 +29 +36 жарко 1006.1 1003.4
21 10.12 ЮЗ 8 10 км ясно +26.7 +9.0 33 +27 +28 жарко 1006.8 1004.1
00 11.12 Ю 9 10 км ясно +20.6 +4.5 35 +21 +21 комфорт 1011.6 1008.9 +19.5 +28.9
03 11.12 Ю 6 10 км ясно +14.5 +8.6 68 +13 +13 1015.0 1012.2
06 11.12 Ю 4 10 км ясно +11.0 +8.6 85 +9 +9 1015.6 1012.9
09 11.12 ЮЗ 3 10 км ясно +9.3 +8.3 93 +7 +7 1017.3 1014.6
12 11.12 Ю 5 10 км 1/1 540 м
[Cu hum]
+16.0 +9.1 64 +15 +19 1018.5 1015.8 +8.8 +20.6
15 11.12 В 5 10 км 1/1 600 м
[Cu hum]
+20.9 +9.0 46 +22 +32 комфорт 1017.9 1015.2
18 11.12 В 5 10 км ясно +20.8 +11.1 54 +23 +31 комфорт 1016.8 1014.0
21 11.12 В 5 10 км ясно +19.4 +10.0 55 +20 +22 1016.0 1013.2
00 12.12 ЮВ 2 10 км ясно +14.4 +10.4 77 +14 +14 1015.9 1013.0 +14.4 +22.1
03 12.12 штиль 0 10 км ясно +12.6 +10.7 88 +12 +12 1016.1 1013.4
06 12.12 В 5 10 км ясно +17.2 +12.6 74 +17 +17 1014.5 1011.8
09 12.12 СВ 3 10 км 3/0
[Ci fib]
+16.8 +12.5 76 +17 +17 1014.8 1012.1
12 12.12 С 4 10 км 6/0
[Ci fib]
+20.4 +13.5 65 +23 +29 комфорт 1015.7 1013.0 +12.3 +20.4
15 12.12 С 3 10 км 8/0
[Ci fib]
+25.0 +14.0 50 +27 +41 жарко 1014.6 1012.0
18 12.12 С 4 10 км 8/0
[Cs]
+27.4 +11.8 38 +29 +39 жарко 1012.1 1009.4
21 12.12 В 4 10 км 6/0
[Cs]
+26.4 +12.2 41 +28 +30 жарко 1010.7 1008.0
00 13.12 В 2 10 км 1/0
[Ci sp]
+19.7 +17.3 86 +23 +23 комфорт 1011.9 1009.2 +19.7 +28.0
03 13.12 В 1 10 км 3/0
[Cs]
+18.0 +17.2 95 +19 +19 1011.8 1009.0
06 13.12 штиль 0 6000 м местами туман поземный туман 3/0
[Cs]
+16.4 +16.4 100 +16 +16 1011.4 1008.6
09 13.12 СВ 2 8000 м дымка {туман} 6/0
[Cs]
+18.5 +16.0 85 +20 +20 1011.8 1009.0
12 13.12 СВ 3 10 км {туман} 6/0
[Ac trans Cs]
+23.8 +7.9 36 +24 +31 комфорт 1012.0 1009.3 +15.2 +23.8
15 13.12 С 2 10 км 10/0
[Ac As Cs]
+27.6 +13.4 42 +29 +43 жарко 1011.6 1008.9
18 13.12 СЗ 1 10 км 10/0
[Ac As]
+30.4 +14.3 38 +32 +38 жарко 1010.3 1007.6
21 13.12 штиль 0 10 км 10/0 1350 м
[As op]
+27.8 +16.5 50 +31 +32 душно 1009.8 1007.0
00 14.12 СВ 2 10 км {дождь} 9/0 1350 м
[As op]
+21.1 +19.1 88 +25 +25 комфорт 1010.4 1007.7 +20.3 +31.5 3
03 14.12 З 1 10 км 6/0
[Ac As]
+18.6 +18.0 96 +21 +21 комфорт 1011.4 1008.6
06 14.12 З 2 8000 м дымка ясно +18.0 +17.8 99 +19 +19 1010.6 1007.8
09 14.12 З 3 2500 м дымка 10/10 90 м
[St]
+17.9 +17.7 99 +18 +18 1010.7 1008.0
12 14.12 З 3 10 км {туман} ясно +21.5 +18.0 80 +26 +33 душно 1012.6 1009.8 +17.1 +21.5
15 14.12 З 3 10 км ясно +27.5 +17.1 53 +31 +48 душно 1011.8 1009.0
18 14.12 СЗ 8 10 км ясно +30.9 +13.9 36 +33 +35 душно 1009.9 1007.2
21 14.12 З 3 10 км 3/3 600 м
[Cu med, cong]
+31.9 +11.5 29 +32 +34 жарко 1008.8 1006.1
00 15.12 штиль 0 10 км 3/0
[Cs]
+24.5 +12.1 46 +31 +31 очень
душно
1010.3 1007.6 +21.5 +34.1
03 15.12 штиль 0 10 км 3/0
[Cs]
+19.6 +13.4 67 +21 +21 комфорт 1011.4 1008.6
06 15.12 СЗ 2 10 км ясно +18.7 +12.9 69 +20 +20 1010.6 1007.8
09 15.12 штиль 0 10 км ясно +18.4 +13.7 74 +19 +19 1011.3 1008.6
12 15.12 З 2 10 км 3/0
[Ci fib]
+28.2 +15.5 46 +31 +40 душно 1011.7 1009.0 +17.4 +28.2
15 15.12 С 4 10 км 3/0
[Ci fib]
+31.0 +17.2 44 +35 +48 очень
душно
1010.8 1008.1
18 15.12 С 4 10 км 1/1 1050 м
[Cu hum Ci sp]
+32.6 +11.3 27 +32 +42 жарко 1009.0 1006.4
21 15.12 С 3 10 км 1/0
[Ci sp]
+32.4 +8.6 23 +31 +34 жарко 1005.9 1003.3
00 16.12 СВ 2 10 км ясно +26.4 +18.7 63 +31 +31 душно 1006.3 1003.7 +26.2 +33.3
03 16.12 СВ 1 10 км 1/0
[Ac cast]
+24.9 +17.6 64 +29 +29 душно 1006.7 1004.1
06 16.12 С 2 10 км 1/0
[Ac cast]
+23.5 +18.3 73 +28 +28 душно 1005.5 1002.9
09 16.12 С 1 10 км 6/0
[Ac cast]
+23.8 +17.3 67 +28 +28 душно 1005.5 1002.9
12 16.12 С 5 10 км 3/0
[Ac cast Cs]
+29.1 +17.0 48 +33 +37 очень
душно
1005.2 1002.6 +22.5 +29.5
15 16.12 С 6 10 км 6/0
[Ac As Cs]
+29.5 +17.7 49 +34 +39 очень
душно
1004.5 1001.8
18 16.12 СЗ 4 9000 м гроза, ливневой дождь 10/6 900 м
[Cb cap As op]
+25.3 +17.6 62 +29 +30 душно 1003.7 1001.0 0.0
21 16.12 СЗ 2 10 км гроза без осадков {дождь} туман 9/4 1200 м
[Cb cap As op Ci sp]
+22.1 +19.8 87 +28 +29 душно 1000.3 997.7

 

Местоположение метеостанции La Plata (Аргентина): широта -34.96 долгота -57.90 высота над уровнем моря 19 м.

В архиве по умолчанию представлена погода в La Plata за последнюю неделю. Архивные данные за месяц целиком и за предыдущие месяцы, начиная с января 2011 года, Вы можете получить, выбрав интересующий диапазон дат из раскрывающегося списка и нажав кнопку "Ввод!".

Внимание! Время в таблицах - всемирное. Для получения местного времени необходимо прибавить поправку, которая в La Plata равна -3 ч.

Смотрите также архив погоды в соседних городах и на ближайших метеорологических станциях:

Погода в Colonia (Уругвай) (57 км)
Погода в Ezeiza (Аргентина) (60 км)
Погода в Buenos Aires Aeropuerto (Аргентина) (64 км)
Погода в Buenos Aires (Аргентина) (68 км)
Погода в Melilla (Уругвай) (152 км)
Погода в Dolores (Аргентина) (152 км)
Погода в Prado (Уругвай) (156 км)
Погода в Las Flores (Аргентина) (164 км)
Погода в Carrasco (Уругвай) (174 км)
Погода в Florida (Уругвай) (183 км)

Пояснения к столбцам:

Ветер - указаны скорость ветра в м/с - средняя за 10 мин, порывы в срок и между сроками (в фигурных скобках) и направление, откуда дует ветер: С - северный, СВ - северо-восточный, В - восточный, ЮВ - юго-восточный, Ю - южный, ЮЗ - юго-западный, З - западный, СЗ - северо-западный.
Видимость - горизонтальная дальность видимости в метрах или километрах. При видимости от 1 до 10 км при отсутствии осадков обычно наблюдается дымка, при ухудшении видимости до 1 км и менее - туман. В сухую погоду видимость может ухудшаться дымом, пылью или мглою.
Явления - указаны атмосферные явления, наблюдавшиеся в срок или в последний час перед сроком; фигурными скобками обозначены явления, наблюдавшиеся между сроками (за 1-3 часа до срока); квадратными скобками обозначены град или гололедные отложения с указанием их диаметра в мм.
Облачность - указаны через наклонную черту общая и нижняя облачность в баллах и высота нижней границы облаков в метрах; квадратными скобками обозначены формы облаков: Ci - перистые, Cs - перисто-слоистые, Cc - перисто-кучевые, Ac - высококучевые, As - высокослоистые, Sc - слоисто-кучевые, Ns - слоисто-дождевые, Cu - кучевые, Cb - кучево-дождевые. Подробнее классификацию облаков см. в Атласе облаков (PDF).
T - Температура воздуха - температура, измеренная на высоте 2 м над землей.
Td - Температура точки росы - температура, при понижении до которой содержащийся в воздухе водяной пар достигнет насыщения.
f - Относительная влажность воздуха - влажноcть воздуха, измеренная на высоте 2 м над землей.
Te - Эффективная температура - температура, которую ощущает одетый по сезону человек в тени. Характеристика душности погоды. При расчете учитывается влияние влажности воздуха и скорости ветра на теплоощущения человека.
Tes - Эффективная температура на солнце - температура, которую ощущает человек, с поправкой на солнечный нагрев. Характеристика знойности погоды. Зависит от высоты солнца над горизонтом, облачности и скорости ветра. Ночью, в пасмурную погоду, а также при ветре 12 м/с и более поправка равна нулю.
P - Атмосферное давление - приведенное к уровню моря атмосферное давление.
Po - Атмосферное давление - измеренное на уровне метеостанции атмосферное давление.
Tmin - Минимальная температура - минимум температуры воздуха на высоте 2 м над землей.
Tmax - Максимальная температура - максимум температуры воздуха на высоте 2 м над землей.
R - Количество осадков - Количество выпавших осадков за период времени, мм. При наведении курсора мыши на число - период времени, за который выпало указанное количество осадков.
R24 - Количество осадков - Количество выпавших осадков за 24 часа, мм.
S - Снежный покров - Высота снежного покрова, см. При наведении курсора мыши на число - состояние снежного покрова и степень покрытия местности в баллах.